Location: Dackenheim
(49.5215°N, 8.1854°E)
Time: 14:25:23
(UTC+00:00)

BlueWalker 3 - Pass Details

Date: 20 January 2026
Orbit: 451 x 461 km, 53.2° (Epoch: 16 February)

Event Time Altitude Azimuth Distance (km) Brightness Sun altitude
Rises 17:54:58 0° 198° (SSW) 2,444 5.8 -17.7°
Reaches altitude 10° 17:57:36 10° 177° (S) 1,576 4.5 -18.1°
Enters shadow 17:59:02 16° 155° (SSE) 1,275 3.8 -18.4°
